Location: Boda
(47.1872°N, 9.5454°E)
Time: 07:45:36
(UTC+00:00)

Cosmos 1626 - Pass Details

Date: 14 May 2021
Orbit: 489 x 492 km, 82.5° (Epoch: 16 June)

Event Time Altitude Azimuth Distance (km) Brightness Sun altitude
Exits shadow 02:24:24 18° 240° (WSW) 1,253 3.5 -12.0°
Maximum altitude 02:26:18 28° 287° (WNW) 947 3.3 -11.8°
Drops below altitude 10° 02:29:33 10° 348° (NNW) 1,695 5.3 -11.4°
Sets 02:31:53 0° 0° (N) 2,581 6.5 -11.1°
